This is the latest recevied weather packets stored in our database for station/object LRCK. If no packets are shown the sender has not sent any weather packets the latest 10 day(s).
| Time | Temp. | Humidity | Pressure | Rain* | Wind** | Luminosity | Snow |
|---|---|---|---|---|---|---|---|
| 1777924998 | 7.78° C | 71% | 1015 hPa | - | - | - | - |
| 1777924097 | 7.78° C | 71% | 1015 hPa | - | - | - | - |
| 1777923198 | 7.78° C | 71% | 1015 hPa | - | - | - | - |
| 1777922297 | 7.78° C | 71% | 1015 hPa | - | - | - | - |
| 1777921397 | 7.78° C | 71% | 1015 hPa | - | - | - | - |
| 1777920497 | 8.89° C | 66% | 1015 hPa | - | - | - | - |
| 1777919608 | 8.89° C | 66% | 1015 hPa | - | - | - | - |
| 1777918698 | 10° C | 62% | 1015 hPa | - | - | - | - |
| 1777917797 | 10° C | 62% | 1015 hPa | - | - | - | - |
| 1777916897 | 11.11° C | 58% | 1015 hPa | - | - | - | - |
| 1777915998 | 11.11° C | 58% | 1015 hPa | - | - | - | - |
| 1777915097 | 12.22° C | 54% | 1015 hPa | - | - | - | - |
| 1777914197 | 12.22° C | 54% | 1015 hPa | - | - | - | - |
| 1777913297 | 12.78° C | 59% | 1015 hPa | - | - | - | - |
| 1777912412 | 12.78° C | 59% | 1015 hPa | - | - | - | - |
| 1777911506 | 13.89° C | 51% | 1015 hPa | - | - | - | - |
| 1777910598 | 13.89° C | 51% | 1015 hPa | - | - | - | - |
| 1777909697 | 15° C | 48% | 1015 hPa | - | - | - | - |
| 1777908797 | 15° C | 48% | 1015 hPa | - | - | - | - |
| 1777907898 | 17.22° C | 37% | 1014 hPa | - | - | - | - |
| 1777906997 | 17.22° C | 37% | 1014 hPa | - | - | - | - |
| 1777906097 | 17.78° C | 32% | 1014 hPa | - | - | - | - |
| 1777905198 | 17.78° C | 32% | 1014 hPa | - | - | - | - |
| 1777904365 | 17.78° C | 34% | 1014 hPa | - | - | - | - |
| 1777903398 | 17.78° C | 34% | 1014 hPa | - | - | - | - |
* Rain since midnight (hover to see other rain measurements)
** Current wind speed in m/s (hover to see current wind gust speed)